COOK73 RJOC-ZPPP

Flight info

Callsign COOK73
Flight time N/A
Altitude 38000
Route CARPS Y281 STOUT Y14 DGC Y28 ISAKY Y592 POTET A593 LAMEN/K0820F380 A593 AKARA/K0824S1160 A593 PK R343 ESBAG W581 SNQ W546 OREVO W164 VILID V65 IKUBA V106 GUGAM A581 XISLI XISLI2B
Aircraft C25C/M-SDE2E3FGHRWXY/LB1

Departure

Time 2026-05-04 18:10
Airport Izumo Enmusubi Airport (RJOC)

Arrival

Time N/A
Airport Kunming Changshui International Airport (ZPPP)
Time Latitude Longitude Altitude Speed Heading
2026-05-04 17:52 35.41505 132.88784 13 ft 0 kts 328°
2026-05-04 18:02 35.41502 132.88786 13 ft 3 kts 326°
2026-05-04 18:02 35.41497 132.88793 13 ft 2 kts 278°
2026-05-04 18:03 35.41504 132.88809 13 ft 2 kts 242°
2026-05-04 18:03 35.41505 132.88813 13 ft 0 kts 240°
2026-05-04 18:04 35.41475 132.88784 13 ft 4 kts 179°
2026-05-04 18:05 35.41449 132.88802 13 ft 5 kts 143°
2026-05-04 18:05 35.41409 132.88834 13 ft 8 kts 149°
2026-05-04 18:05 35.41349 132.88881 12 ft 12 kts 135°
2026-05-04 18:05 35.41365 132.88978 11 ft 13 kts 58°
2026-05-04 18:06 35.41448 132.89149 14 ft 11 kts 60°
2026-05-04 18:06 35.41488 132.89231 14 ft 12 kts 58°
2026-05-04 18:06 35.41531 132.89323 15 ft 14 kts 59°
2026-05-04 18:07 35.41583 132.89429 16 ft 15 kts 59°
2026-05-04 18:07 35.41641 132.89551 16 ft 18 kts 59°
2026-05-04 18:07 35.41711 132.89692 16 ft 20 kts 59°
2026-05-04 18:07 35.41767 132.89838 15 ft 19 kts 65°
2026-05-04 18:08 35.41806 132.89901 15 ft 3 kts 302°
2026-05-04 18:08 35.41803 132.89882 15 ft 0 kts 242°
2026-05-04 18:10 35.41777 132.89828 16 ft 31 kts 239°
2026-05-04 18:10 35.41511 132.89279 16 ft 117 kts 239°
2026-05-04 18:10 35.41100 132.88443 735 ft 119 kts 237°
2026-05-04 18:11 35.40596 132.87362 1096 ft 166 kts 240°
2026-05-04 18:11 35.39947 132.86032 1759 ft 195 kts 238°
2026-05-04 18:11 35.38883 132.84990 2764 ft 203 kts 204°
2026-05-04 18:11 35.37472 132.84733 3666 ft 217 kts 176°
2026-05-04 18:12 35.35940 132.84877 4631 ft 224 kts 178°
2026-05-04 18:12 35.34366 132.85024 5582 ft 229 kts 176°
2026-05-04 18:12 35.32768 132.85171 6585 ft 231 kts 176°
2026-05-04 18:12 35.31149 132.85317 7490 ft 236 kts 176°
2026-05-04 18:13 35.29495 132.85462 8364 ft 241 kts 177°
2026-05-04 18:13 35.27800 132.85612 9235 ft 247 kts 177°
2026-05-04 18:13 35.24306 132.85925 10932 ft 255 kts 178°
2026-05-04 18:14 35.22521 132.86083 11755 ft 258 kts 179°
2026-05-04 18:14 35.20714 132.86245 12574 ft 262 kts 179°
2026-05-04 18:14 35.18888 132.86395 13407 ft 264 kts 182°
2026-05-04 18:15 35.15581 132.84952 14943 ft 257 kts 213°
2026-05-04 18:15 35.12422 132.82831 16428 ft 261 kts 214°
2026-05-04 18:15 35.10806 132.81763 17183 ft 264 kts 214°
2026-05-04 18:16 35.09177 132.80693 17941 ft 267 kts 214°
2026-05-04 18:16 35.07530 132.79609 18659 ft 270 kts 214°
2026-05-04 18:16 35.05880 132.78521 19416 ft 269 kts 214°
2026-05-04 18:17 35.02615 132.76371 21011 ft 267 kts 215°
2026-05-04 18:17 35.00980 132.75295 21798 ft 267 kts 215°
2026-05-04 18:17 34.97719 132.73150 23473 ft 266 kts 216°
2026-05-04 18:18 34.96094 132.72081 24208 ft 265 kts 216°
2026-05-04 18:18 34.94476 132.71019 24894 ft 264 kts 216°
2026-05-04 18:18 34.92859 132.69956 25554 ft 264 kts 217°
2026-05-04 18:18 34.91248 132.68898 26241 ft 263 kts 217°
2026-05-04 18:19 34.88043 132.66795 27577 ft 261 kts 217°
2026-05-04 18:19 34.86439 132.65744 28221 ft 261 kts 218°
2026-05-04 18:19 34.84846 132.64702 28909 ft 259 kts 218°
2026-05-04 18:20 34.83276 132.63677 29687 ft 253 kts 218°
2026-05-04 18:20 34.81740 132.62670 30423 ft 248 kts 219°
2026-05-04 18:20 34.80234 132.61685 31032 ft 243 kts 219°
2026-05-04 18:20 34.78755 132.60719 31649 ft 239 kts 219°
2026-05-04 18:21 34.77303 132.59767 32245 ft 236 kts 220°
2026-05-04 18:21 34.75886 132.58841 32820 ft 232 kts 220°
2026-05-04 18:21 34.74480 132.57922 33410 ft 228 kts 220°
2026-05-04 18:21 34.73091 132.57015 33979 ft 225 kts 220°
2026-05-04 18:22 34.71720 132.56120 34496 ft 222 kts 221°
2026-05-04 18:22 34.70361 132.55231 34895 ft 222 kts 221°
2026-05-04 18:22 34.69003 132.54344 35253 ft 222 kts 221°
2026-05-04 18:22 34.67643 132.53457 35643 ft 221 kts 221°
2026-05-04 18:23 34.66287 132.52572 36009 ft 221 kts 221°
2026-05-04 18:23 34.64945 132.51699 36372 ft 221 kts 221°
2026-05-04 18:23 34.63592 132.50817 36728 ft 221 kts 221°
2026-05-04 18:23 34.62240 132.49936 37016 ft 221 kts 221°
2026-05-04 18:24 34.60889 132.49058 37327 ft 220 kts 221°
2026-05-04 18:24 34.59535 132.48177 37650 ft 220 kts 221°
2026-05-04 18:24 34.58187 132.47300 38002 ft 220 kts 221°
2026-05-04 18:24 34.56813 132.46399 38118 ft 229 kts 221°
2026-05-04 18:25 34.55374 132.45459 38160 ft 240 kts 220°
2026-05-04 18:25 34.53869 132.44479 38159 ft 250 kts 220°
2026-05-04 18:25 34.52313 132.43474 38151 ft 257 kts 220°
2026-05-04 18:25 34.50713 132.42439 38172 ft 264 kts 220°
2026-05-04 18:26 34.49096 132.41330 38165 ft 267 kts 223°
2026-05-04 18:26 34.47569 132.40064 38165 ft 271 kts 226°
2026-05-04 18:26 34.46100 132.38622 38163 ft 273 kts 229°
2026-05-04 18:26 34.44718 132.37024 38163 ft 276 kts 233°
2026-05-04 18:27 34.43441 132.35282 38159 ft 278 kts 236°
2026-05-04 18:27 34.42279 132.33399 38159 ft 281 kts 240°